Location: Forshaga
(59.5328°N, 13.4805°E)
Time: 01:16:44
(UTC+02:00)

ISS - Pass Details

Date: 05 March 2021
Orbit: 418 x 422 km, 51.6° (Epoch: 12 April)

Event Time Altitude Azimuth Distance (km) Brightness Sun altitude
Exits shadow 04:53:38 20° 198° (SSW) 1,023 -2.1 -15.7°
Maximum altitude 04:54:03 21° 187° (S) 1,007 -2.1 -15.6°
Drops below altitude 10° 04:56:39 10° 136° (SE) 1,500 -0.6 -15.3°
Sets 04:59:04 0° 120° (ESE) 2,363 0.8 -15.0°
